Location: Newark
(30.4994°N, 96.8283°W)
Time: 20:21:14
(UTC+00:00)

Envisat - Pass Details

Date: 28 November 2019
Orbit: 764 x 766 km, 98.1° (Epoch: 06 December)

Event Time Altitude Azimuth Distance (km) Brightness Sun altitude
Rises 01:35:14 0° 202° (SSW) 3,216 6.6 -27.3°
Reaches altitude 10° 01:38:08 10° 219° (SW) 2,294 6.0 -27.9°
Maximum altitude 01:41:44 20° 265° (W) 1,732 5.6 -28.7°
Drops below altitude 10° 01:45:21 10° 311° (NW) 2,302 5.9 -29.5°
Sets 01:48:17 0° 328° (NNW) 3,232 6.5 -30.1°
